Miscellaneous Local Product
Issued by NWS Hastings, NE

Home | Current Version | Previous Version | Graphics & Text | Print | Product List | Glossary On
Versions: 1 2 3 4 5 6 7 8 9 10 11 12 13 14 15 16 17 18 19 20 21 22 23 24 25 26 27 28 29 30 31 32 33 34 35 36 37 38 39 40 41 42 43 44 45 46 47 48 49 50
100
AXUS43 KGID 280502
MISGRI

GID CWA HOURLY WEATHER ROUNDUP
NATIONAL WEATHER SERVICE HASTINGS NE
1200 AM CDT THU JUL 28 2016

NOTE: "FAIR" INDICATES FEW OR NO CLOUDS BELOW 12,000 FEET WITH NO
SIGNIFICANT WEATHER AND/OR OBSTRUCTIONS TO VISIBILITY.

...SOUTH CENTRAL NEBRASKA...

CITY           SKY/WX    TMP DP  RH WIND       PRES   REMARKS
GRAND ISLAND   CLEAR     70  66  87 N3        30.06F
HASTINGS       CLEAR     70  66  87 N5        30.07F
KEARNEY        CLEAR     70  12  11 N9        30.09S
ORD            PTCLDY    65  61  87 W3        30.09F
YORK           PTCLDY    70  68  94 N3        30.04F
AURORA         CLEAR     68  67  96 N5        30.05S
LEXINGTON      CLEAR     67  64  87 NE6       30.11S
HOLDREGE       PTCLDY    71  67  89 N7        30.09R
HEBRON         CLOUDY    74  67  80 N3        30.03F

...NEBRASKA PANHANDLE...

CITY           SKY/WX    TMP DP  RH WIND       PRES   REMARKS
CHADRON        CLOUDY    70  61  73 S14       30.14F
ALLIANCE       CLOUDY    66  60  81 E10       30.17F
SCOTTSBLUFF    CLOUDY    69  61  75 E21G36    30.15F
SIDNEY         MOCLDY    67  62  84 E7        30.21R

...WESTERN AND NORTH CENTRAL NEBRASKA...

CITY           SKY/WX    TMP DP  RH WIND       PRES   REMARKS
VALENTINE      CLEAR     60  57  89 MISG      30.13S
AINSWORTH      CLOUDY    61  59  93 W8        30.11S
ONEILL         CLOUDY    66  61  82 CALM      30.07F
BROKEN BOW     CLEAR     63  61  93 N7        30.11F
IMPERIAL       PTCLDY    74  66  76 E10       30.12S
NORTH PLATTE   CLEAR     67  62  84 NE12      30.12F
MCCOOK         CLOUDY    73  68  84 W8        30.10R

...EASTERN NEBRASKA...

CITY           SKY/WX    TMP DP  RH WIND       PRES   REMARKS
NORFOLK        MOCLDY    68  63  84 W8        30.04S
SO SIOUX CITY  PTCLDY    78  64  61 N9        30.00S
TEKAMAH        CLOUDY    74  64  71 N5        29.99S
COLUMBUS       PTCLDY    70  57  64 NW10      30.04S
ALBION         MOCLDY    68  61  77 NW8       30.07F
OMAHA EPPLEY   PTCLDY    76  70  82 E3        29.98S
OFFUTT AFB     MOCLDY    71  70  96 S1        29.97F
MILLARD        CLOUDY    75  69  82 CALM      29.99S
LINCOLN        CLEAR     76  68  76 N5        30.01S
NEBRASKA CITY  CLEAR     74  74 100 CALM      29.99F
BEATRICE       CLOUDY    72  68  89 N3        30.01S
FALLS CITY     CLEAR     73  71  93 NW6       29.97S

...NORTHERN KANSAS...

CITY           SKY/WX    TMP DP  RH WIND       PRES   REMARKS
GOODLAND       TSTM      65  62  90 SE14      30.11S
HILL CITY      CLOUDY    76  68  76 NE9       30.07R
NORTON         CLEAR     73  64  73 E3        30.07S
SMITH CENTER   CLEAR     73  66  78 NE6       30.05R
BELOIT         CLEAR     73  68  83 CALM      30.00F
HAYS           CLEAR     75  63  64 E6        30.04R
RUSSELL        CLEAR     74  68  81 E7        30.01F
CONCORDIA      CLEAR     74  68  81 N7        30.02R
SALINA         CLEAR     78  70  76 SE3       29.99F
TOPEKA           N/A     75  70  84 CALM      29.97R



USA.gov is the U.S. government's official web portal to all federal, state and local government web resources and services.